Погода в Люботине

Украина / Харьковская область     49°56′53″N   35°55′46″E
темп.,
°C
ветер,
м/с
пор.,
м/с
влажн.,
%
обл.,
%
осадки,
мм/ч
давл.,
гПа
погр.,
м
31 июля, сб
сб3100:00+23с38570 0.0 1009220
03:00+19ссв22760 0.0 101040
06:00+19сз23790 0.0 101079
09:00+26ссз33440 0.0 1010829
12:00+30ссз33310 0.0 10102178
15:00+32ссз33270 0.0 10102714
18:00+32ссз232739 0.0 10092723
21:00+27с2337100 0.0 101172
1 августа, вс
вс100:00+25всв224213 0.0 101119
03:00+22вюв11503 0.0 101211
06:00+22в00530 0.0 101211
09:00+29юв34380 0.0 1012578
12:00+33ююв33260 0.0 10122946
15:00+35ю322219 0.0 10113401
18:00+34ю432239 0.0 10092754
21:00+27ююв22364 0.0 101050
2 августа, пн
пн200:00+23ю47553 0.0 1011133
03:00+22ююз365759 0.0 1011101
06:00+22ю346235 0.0 101197
09:00+30ююз463797 0.0 1010608
12:00+34юз56273 0.0 10092804
15:00+36юз672378 0.0 10083614
18:00+34юз57264 0.1 10072137
21:00+21зсз101787100 0.6 1011709
3 августа, вт
вт300:00+20юз3690100 2.1 1010162
03:00+20ююз498899 2.3 1009221
06:00+19зсз38916 0.3 1011329
09:00+20зсз347360 0.9 1012508
12:00+26зсз454250 0.1 10121219
15:00+26сз67404 0.0 10121840
18:00+26сз773930 0.0 10131795
21:00+20сз37562 0.0 1015191
4 августа, ср
ср400:00+18сз23640 0.0 101650
03:00+17зсз116644 0.0 101717
06:00+19зсз115778 0.0 101757
09:00+24з23430 0.0 10181010
12:00+28зсз453019 0.0 10172688
15:00+30сз442471 0.0 10162977
18:00+29сз332599 0.0 10152802
21:00+23ссв3741100 0.0 1016155